Regional Weather Roundup
Issued by NWS

Home | Current Version | Previous Version | Graphics & Text | Print | Product List | Glossary On
Versions: 1 2 3 4 5 6 7 8 9 10 11 12 13 14 15 16 17 18 19 20 21 22 23 24 25 26 27 28 29 30 31 32 33 34 35 36 37 38 39 40 41 42 43 44 45 46 47 48 49 50
000
ASUS45 KSLC 191110
RWRUT

UTAH REGIONAL WEATHER ROUNDUP
NATIONAL WEATHER SERVICE SALT LAKE CITY UT
500 AM MDT FRI SEP 19 2014

UTZ001>011-023>025-191200-

NORTHERN UTAH

CITY           SKY/WX    TMP DP  RH WIND       PRES   REMARKS
HILL AFB       MOCLDY    63  54  71 NW12      30.01R
LOGAN          PTCLDY    56  56 100 SW5       30.01R
OGDEN          CLOUDY    61  56  83 W6        29.99R
PROVO AIRPORT  PTCLDY    61  55  82 CALM      30.00R
SALT LAKE CITY CLOUDY    64  59  83 SW5       29.97S
VERNAL         PTCLDY    63  46  54 NE14      30.01R
WENDOVER       PTCLDY    63  52  67 NW5       29.99S
HEBER CITY     PTCLDY    59  48  67 NW3       30.08R
WEST JORDAN    CLOUDY    64  55  72 CALM      30.00R

$$

UTZ012>022-026-027-191200-

SOUTHERN UTAH

CITY           SKY/WX    TMP DP  RH WIND       PRES   REMARKS
BRYCE CANYON   CLOUDY    50  46  86 N5        30.18S
CEDAR CITY     CLOUDY    62  49  62 CALM      30.04S
MILFORD        CLOUDY    65  52  62 SW8       30.00R
MOAB/CYNLANDS  CLEAR     61  38  42 CALM      29.92R
PRICE          CLEAR     60  37  42 N10       30.03R
ST GEORGE      CLOUDY    75  52  43 CALM      29.88R
KANAB          CLOUDY    63  50  63 N6        30.04S

$$

REGIONAL REPORTS     COLORADO/ARIZONA

CITY           SKY/WX    TMP DP  RH WIND       PRES   REMARKS
CRAIG, CO      CLEAR     47  40  76 VRB3      30.11R
GRAND JUNCTION CLEAR     60  41  49 SE5       29.98R
RIFLE          CLEAR     52  42  69 CALM      30.06R
MONTROSE       CLEAR     58  44  60 S9        30.07R
CORTEZ         CLEAR     48  43  82 E5        30.08S
PAGE, AZ       PTCLDY    73  52  47 CALM      29.94R
GRAND CANYON   MOCLDY    51  48  89 CALM      30.14S
KINGMAN        CLEAR     70  48  45 SE8       29.90R
FLAGSTAFF      PTCLDY    55  53  93 SW3       30.16S

$$

REGIONAL REPORTS    NEVADA/IDAHO/WYOMING

CITY           SKY/WX    TMP DP  RH WIND       PRES   REMARKS
LAS VEGAS, NV  CLEAR     79  46  31 S18       29.75S
ELY            PTCLDY    47  39  74 CALM      30.10R
ELKO           CLEAR     53  49  86 E6        30.05R
POCATELLO, ID  CLEAR     50  50 100 S3        30.01R
BURLEY         CLEAR     58  44  60 W7        29.99R
EVANSTON, WY   MOCLDY    54  47  77 NE8       30.17S
ROCK SPRINGS   CLOUDY    54  49  83 W7        30.15R

$$


USA.gov is the U.S. government's official web portal to all federal, state and local government web resources and services.